Regional Weather Roundup
Issued by NWS

Home | Current Version | Previous Version | Graphics & Text | Print | Product List | Glossary On
Versions: 1 2 3 4 5 6 7 8 9 10 11 12 13 14 15 16 17 18 19 20 21 22 23 24 25 26 27 28 29 30 31 32 33 34 35 36 37 38 39 40 41 42 43 44 45 46 47 48 49 50
000
ASUS45 KABQ 280110
RWRNM
WEATHER ROUNDUP FOR NEW MEXICO
NATIONAL WEATHER SERVICE ALBUQUERQUE NM
600 PM MST THU NOV 27 2014

NOTE: "FAIR" MEANS FEW OR NO CLOUDS BELOW 12,000 FEET AGL WITH NO
       SIGNIFICANT WEATHER OR OBSTRUCTIONS TO VISION.

      THIS PRODUCT IS RELEASED AS TWO VERSIONS.  ONE VERSION NEAR
      THE TOP OF THE HOUR CONTAINING PRELIMINARY DATA FROM ALBUQUERQUE
      AND OTHER STATIONS.  A FINAL VERSION WITH ADDITIONAL DATA IS
      ISSUED ABOUT 10 MINUTES AFTER THE HOUR.

NMZ501-503-504-510>518-280200-
NORTHWEST PLATEAU/NORTHCENTRAL MOUNTAINS

CITY           SKY/WX    TMP DP  RH WIND       PRES   REMARKS
FARMINGTON     CLEAR     50  21  32 CALM      30.34S
LOS ALAMOS     CLEAR     49  22  33 CALM      30.39S
SANTA FE       PTCLDY    48  20  32 W5        30.35S
TAOS           PTCLDY    36  23  60 SE3       30.38R
ANGEL FIRE     FAIR      32  18  57 CALM      30.41S

$$
NMZ402-403-502-505>509-280200-
WESTCENTRAL MOUNTAINS/SOUTHWEST MOUNTAINS

CITY           SKY/WX    TMP DP  RH WIND       PRES   REMARKS
GALLUP         PTCLDY    47   9  21 E6        30.37R
GRANTS         PTCLDY    45   9  23 CALM      30.38R
SILVER CITY    CLEAR     54  19  26 SE3       30.36R

$$
NMZ407-409-411-412-280200-
SOUTHERN DESERTS

CITY           SKY/WX    TMP DP  RH WIND       PRES   REMARKS
LORDSBURG      FAIR      54  21  28 SE6       30.28S
DEMING         PTCLDY    53  22  29 CALM      30.29F
LAS CRUCES     CLEAR     56  21  26 S5        30.31F
HOLLOMAN AFB   CLEAR     52  24  33 NW2       30.29S
ALAMOGORDO     CLEAR     48  19  32 E6        30.31S
T OR C         PTCLDY    55  20  25 CALM      30.31S

$$
NMZ519>523-280200-
CENTRAL VALLEYS/CENTRAL HIGHLANDS

CITY           SKY/WX    TMP DP  RH WIND       PRES   REMARKS
ALBUQUERQUE    PTCLDY    52  20  28 SE3       30.33S
DOUBLE EAGLE   CLEAR     39  16  38 S3        30.35S
MORIARTY ARPT  FAIR      40  20  45 NE5       30.35S
CLINES CORNERS PTCLDY    43  19  38 NW10      30.35S
BELEN          FAIR      47  18  32 CALM      30.33S
SOCORRO        FAIR      47  19  33 SW5       30.32S

$$
NMZ524>526-539-540-280200-
SOUTHCENTRAL MOUNTAINS

CITY           SKY/WX    TMP DP  RH WIND       PRES   REMARKS
RUIDOSO        PTCLDY    46  19  34 W12       30.39S

$$
NMZ527>531-280200-
NORTHEAST HIGHLANDS/NORTHEAST PLAINS

CITY           SKY/WX    TMP DP  RH WIND       PRES   REMARKS
LAS VEGAS      PTCLDY    57   8  14 W5        30.32R
RATON          MOCLDY    43  20  39 N7        30.26R
CLAYTON        PTCLDY    43  26  51 SW8       30.19F

$$
NMZ532>537-280200-
EASTCENTRAL PLAINS

CITY           SKY/WX    TMP DP  RH WIND       PRES   REMARKS
TUCUMCARI      PTCLDY    53  27  36 SW12      30.20S
CANNON AFB     CLEAR     46  25  43 SW8       30.26S
CLOVIS AIRPORT CLEAR     46  25  42 SW9       30.26R

$$
NMZ028-029-538-280200-
SOUTHEAST PLAINS

CITY           SKY/WX    TMP DP  RH WIND       PRES   REMARKS
ROSWELL        CLEAR     46  29  51 S8        30.27S
CARLSBAD       CLEAR     49  32  52 S7        30.28S
HOBBS          CLEAR     46  28  49 S8        30.31S


$$


USA.gov is the U.S. government's official web portal to all federal, state and local government web resources and services.